Probability
0 0 0 0 0 0 0 0 0 0 0 0 0 0 0 0 3 6 6 6 6 6 6 6 6 10 6 6 3 3 3 3 3 3 3 3 3 0 0 0 0 0 0 0
0 0 0 0 0 0 0 0 0 0 0 0 0 0 0 0 0 0 0 6 6 3 6 6 10 10 13 10 6 6 6 3 3 0 0 0 0 0 0 0 0 0 0 0
0 0 0 0 0 0 0 0 0 0 0 0 0 0 0 0 0 0 0 0 0 3 6 10 10 10 13 13 10 6 6 6 6 3 0 0 0 0 0 0 0 0 0 0
0 0 0 0 0 0 0 0 0 0 0 0 0 0 0 0 0 0 0 0 3 6 6 10 10 13 13 13 10 6 6 6 3 3 3 0 0 0 0 0 0 0 0 0
0 0 0 0 0 0 0 0 0 0 0 0 0 0 0 0 0 0 0 0 0 10 10 13 13 13 13 13 6 6 6 6 6 3 3 3 0 0 0 0 0 0 0 0
0 0 0 0 0 0 0 0 0 0 0 0 0 0 0 0 0 0 0 0 0 0 3 6 13 16 16 13 10 6 10 10 6 3 3 3 3 0 0 0 0 0 0 0
0 0 0 0 0 0 0 0 0 0 0 0 0 0 0 0 0 0 0 0 0 0 6 13 13 16 16 13 13 10 10 10 6 3 3 3 3 3 0 0 0 0 0 0
0 0 0 0 0 0 0 0 0 0 0 0 0 0 0 0 0 0 0 0 0 0 6 16 16 16 16 13 13 10 10 10 6 3 3 3 3 3 3 3 0 0 0 0
0 0 0 0 0 0 0 0 0 0 0 0 0 0 0 0 0 0 0 0 0 0 0 13 16 16 13 10 10 10 10 10 6 6 6 3 0 0 0 3 0 0 0 0
0 0 0 0 0 0 0 0 0 0 0 0 0 0 0 0 0 0 0 0 0 0 0 0 13 16 13 10 10 10 10 10 6 6 6 3 0 0 0 0 0 0 0 0
0 0 0 0 0 0 0 0 0 0 0 0 0 0 0 0 0 0 0 0 0 0 0 0 10 10 10 6 6 10 10 10 6 6 6 3 0 0 0 0 0 0 0 0
0 0 0 0 0 0 0 0 0 0 0 0 0 0 0 0 0 0 0 0 0 0 0 0 6 6 6 6 6 6 6 3 3 3 3 3 0 0 0 0 0 0 0 0
0 0 0 0 0 0 0 0 0 0 0 0 0 0 0 0 0 0 0 0 0 0 0 3 6 10 3 6 6 6 6 6 3 3 3 3 0 0 0 0 0 0 0 0
0 0 0 0 0 0 0 0 0 0 0 0 0 0 0 0 0 0 0 0 0 0 0 3 6 6 6 6 6 6 6 6 6 3 3 3 3 0 0 0 0 0 0 0
0 0 0 0 0 0 0 0 0 0 0 0 0 0 0 0 0 0 0 0 0 0 0 0 6 3 3 6 6 6 6 6 6 3 3 3 0 0 0 0 0 0 0 0
0 0 0 0 0 0 0 0 0 0 0 0 0 0 0 0 0 0 0 0 0 0 0 0 3 3 3 3 10 6 6 6 6 3 3 3 0 0 0 0 0 0 0 0
0 0 0 0 0 0 0 0 0 0 0 0 0 0 0 0 0 0 0 0 0 0 0 0 3 3 3 3 6 10 6 6 6 6 3 3 3 0 0 0 0 0 0 0
0 0 0 0 0 0 0 0 0 0 0 0 0 0 0 0 0 0 0 0 0 0 0 0 3 3 3 6 6 6 10 6 6 6 6 0 0 0 0 0 0 0 0 0
0 0 0 0 0 0 0 0 0 0 0 0 0 0 0 0 0 0 0 0 0 0 0 3 3 3 3 3 6 6 6 6 6 6 3 0 0 0 0 0 0 0 0 0
0 0 0 0 0 0 0 0 0 0 0 0 0 0 0 0 0 0 0 0 0 0 0 3 3 0 3 3 3 6 6 10 10 6 3 0 0 0 0 0 0 0 0 0
0 0 0 0 0 0 0 0 0 0 0 0 0 0 0 0 0 0 0 0 0 0 0 0 3 3 0 3 3 3 6 10 10 10 6 3 0 0 0 0 0 0 0 0
0 0 0 0 0 0 0 0 0 0 0 0 0 0 0 0 0 0 0 0 0 0 0 0 6 6 3 3 3 3 3 6 10 6 6 6 3 0 0 3 3 0 0 0
0 0 0 0 0 0 0 0 0 0 0 0 0 0 0 0 0 0 0 0 0 0 0 0 3 6 3 3 3 3 3 6 6 6 6 6 3 0 0 0 0 3 0 0
0 0 0 0 0 0 0 0 0 0 0 0 0 0 0 0 0 0 0 0 0 0 0 0 0 0 0 0 3 3 3 6 6 6 6 6 3 3 3 0 0 0 0 0
0 0 0 0 0 0 0 0 0 0 0 0 0 0 0 0 0 0 0 0 0 0 0 0 0 0 0 0 0 0 3 6 6 6 6 3 3 3 3 0 0 0 0 0
0 0 0 0 0 0 0 0 0 0 0 0 0 0 0 0 0 0 0 0 0 0 0 0 0 0 0 0 0 0 0 3 3 3 6 3 3 3 3 0 0 0 0 0
Height
5854 5855 5855 5856 5857 5859 5860 5861 5862 5864 5865 5866 5867 5869 5870 5871 5873 5874 5875 5877 5878 5880 5881 5883 5884 5885 5887 5888 5889 5890 5892 5893 5894 5895 5896 5897 5897 5898 5898 5898 5898 5897 5897 5896
5854 5854 5855 5856 5857 5858 5859 5861 5862 5863 5864 5866 5867 5868 5869 5871 5872 5874 5875 5876 5878 5879 5881 5882 5883 5885 5886 5887 5889 5890 5891 5892 5893 5894 5896 5896 5897 5897 5897 5897 5897 5897 5896 5896
5852 5854 5854 5855 5856 5858 5859 5860 5861 5863 5864 5865 5867 5868 5869 5871 5872 5873 5874 5876 5877 5879 5880 5881 5883 5884 5886 5887 5888 5889 5890 5891 5893 5894 5895 5896 5896 5897 5897 5897 5896 5896 5895 5895
5851 5852 5853 5855 5856 5857 5858 5859 5861 5862 5864 5865 5867 5868 5869 5870 5871 5872 5874 5875 5876 5878 5879 5881 5882 5883 5885 5886 5887 5888 5890 5891 5892 5893 5894 5895 5895 5896 5896 5896 5896 5895 5895 5894
5850 5851 5853 5854 5855 5856 5858 5859 5860 5861 5863 5864 5865 5867 5868 5868 5870 5871 5873 5874 5875 5877 5878 5880 5881 5883 5884 5885 5886 5888 5889 5890 5891 5892 5893 5894 5895 5895 5895 5895 5895 5895 5894 5893
5849 5850 5851 5853 5854 5855 5856 5858 5859 5860 5862 5863 5864 5865 5867 5867 5869 5870 5871 5873 5874 5875 5877 5878 5880 5881 5883 5884 5886 5887 5888 5889 5891 5892 5893 5893 5894 5894 5894 5894 5894 5894 5893 5892
5848 5849 5850 5851 5853 5854 5856 5858 5859 5860 5861 5863 5863 5863 5865 5866 5867 5868 5869 5871 5872 5873 5875 5876 5878 5880 5881 5883 5884 5886 5887 5888 5889 5891 5891 5892 5893 5893 5893 5893 5893 5893 5892 5891
5847 5848 5849 5850 5852 5853 5854 5856 5859 5860 5860 5861 5861 5862 5864 5864 5865 5866 5867 5869 5870 5872 5873 5875 5876 5878 5879 5881 5883 5884 5885 5887 5888 5889 5890 5891 5892 5892 5892 5892 5892 5892 5891 5890
5845 5847 5848 5848 5850 5851 5852 5854 5856 5857 5858 5859 5860 5861 5862 5862 5863 5864 5865 5867 5868 5870 5871 5873 5874 5876 5878 5880 5881 5883 5884 5885 5887 5888 5889 5889 5890 5890 5890 5890 5890 5890 5890 5889
5843 5845 5846 5846 5847 5849 5851 5852 5853 5855 5856 5857 5858 5859 5860 5860 5861 5862 5863 5865 5866 5868 5869 5871 5873 5874 5876 5878 5879 5881 5882 5884 5885 5886 5887 5888 5888 5889 5888 5889 5889 5888 5888 5887
5840 5842 5844 5845 5845 5847 5849 5850 5851 5852 5854 5855 5856 5859 5857 5858 5859 5860 5862 5863 5864 5866 5867 5869 5871 5872 5874 5876 5877 5879 5880 5882 5883 5884 5885 5885 5886 5886 5887 5887 5887 5886 5886 5885
5838 5839 5841 5842 5843 5844 5845 5847 5849 5850 5851 5852 5854 5857 5855 5856 5857 5858 5859 5861 5862 5864 5865 5867 5868 5870 5872 5873 5875 5876 5878 5879 5881 5882 5882 5883 5884 5884 5884 5885 5884 5884 5884 5883
5835 5837 5838 5839 5842 5842 5843 5844 5846 5847 5848 5849 5851 5855 5852 5853 5854 5856 5857 5859 5860 5861 5863 5864 5866 5868 5869 5871 5873 5874 5875 5877 5878 5879 5880 5881 5881 5882 5882 5882 5882 5882 5882 5881
5831 5833 5836 5838 5838 5839 5840 5842 5843 5844 5845 5847 5849 5850 5850 5850 5852 5853 5855 5856 5857 5859 5860 5862 5864 5865 5867 5868 5870 5871 5873 5874 5875 5877 5877 5878 5879 5879 5880 5880 5880 5879 5879 5879
5828 5830 5832 5833 5834 5836 5837 5838 5840 5841 5843 5844 5845 5846 5847 5848 5849 5851 5852 5853 5855 5856 5858 5859 5861 5863 5864 5865 5867 5868 5870 5871 5872 5874 5874 5875 5876 5876 5877 5877 5877 5877 5876 5876
5824 5827 5828 5830 5831 5832 5834 5835 5836 5838 5839 5841 5842 5843 5844 5845 5846 5848 5849 5850 5852 5853 5855 5857 5858 5860 5861 5862 5864 5865 5866 5868 5869 5870 5871 5872 5873 5873 5874 5874 5874 5873 5873 5873
5820 5823 5825 5827 5828 5829 5831 5832 5833 5835 5836 5838 5839 5841 5841 5842 5843 5844 5846 5847 5849 5850 5852 5854 5855 5857 5858 5859 5861 5862 5863 5864 5865 5867 5868 5868 5869 5870 5870 5870 5870 5870 5870 5869
5816 5818 5820 5822 5824 5825 5829 5828 5829 5831 5832 5834 5835 5836 5838 5839 5840 5841 5842 5844 5846 5847 5849 5850 5852 5853 5855 5856 5857 5858 5859 5860 5862 5863 5864 5864 5865 5865 5866 5866 5866 5866 5866 5866
5811 5813 5816 5818 5819 5821 5824 5825 5825 5827 5828 5830 5831 5832 5834 5835 5836 5838 5839 5840 5842 5844 5845 5847 5848 5849 5850 5852 5853 5854 5855 5856 5857 5858 5859 5860 5861 5861 5862 5862 5862 5862 5862 5861
5806 5808 5811 5813 5815 5817 5820 5820 5821 5823 5824 5826 5826 5828 5829 5831 5833 5835 5835 5836 5838 5839 5841 5842 5843 5845 5846 5847 5849 5850 5851 5852 5853 5854 5855 5855 5856 5856 5857 5857 5857 5857 5857 5857
5800 5802 5805 5807 5809 5812 5814 5815 5817 5820 5821 5821 5822 5824 5825 5827 5829 5830 5831 5832 5834 5835 5836 5838 5839 5840 5841 5843 5844 5845 5846 5847 5848 5849 5850 5851 5851 5851 5852 5852 5852 5852 5852 5851
5794 5797 5799 5802 5804 5809 5809 5810 5813 5814 5815 5816 5818 5819 5821 5822 5823 5825 5826 5827 5829 5830 5832 5833 5834 5835 5836 5838 5839 5840 5841 5842 5842 5843 5844 5845 5846 5846 5846 5847 5847 5847 5846 5846
5788 5792 5794 5797 5801 5802 5803 5805 5806 5808 5810 5811 5813 5815 5816 5817 5818 5820 5821 5822 5824 5825 5826 5828 5829 5830 5831 5832 5833 5834 5835 5836 5836 5837 5838 5839 5840 5840 5841 5841 5841 5840 5840 5839
5781 5784 5787 5790 5792 5794 5796 5798 5800 5802 5804 5806 5807 5809 5811 5812 5813 5815 5816 5817 5818 5820 5821 5822 5823 5824 5825 5826 5827 5828 5829 5830 5831 5831 5832 5833 5834 5834 5834 5834 5834 5834 5833 5833
5775 5777 5780 5782 5785 5787 5789 5792 5794 5796 5798 5800 5801 5803 5805 5806 5808 5809 5810 5811 5813 5814 5815 5816 5817 5818 5819 5820 5821 5822 5823 5824 5825 5825 5826 5827 5827 5827 5828 5828 5827 5827 5826 5825
5767 5770 5773 5775 5778 5780 5783 5785 5788 5790 5792 5794 5795 5797 5799 5800 5802 5803 5804 5806 5807 5808 5809 5810 5811 5812 5813 5814 5814 5815 5816 5817 5818 5819 5819 5820 5820 5820 5820 5820 5820 5819 5819 5818
Wind_Speed
3 4 5 6 6 7 7 8 8 8 9 9 9 9 10 10 10 10 10 10 11 11 10 10 10 10 10 10 10 10 10 9 8 7 6 5 4 3 2 2 2 2 2 3
4 5 5 6 6 7 7 7 7 8 8 9 9 9 11 11 10 10 10 10 11 11 11 10 10 10 10 10 10 9 9 9 8 7 6 5 4 3 2 1 2 2 3 4
4 5 6 6 7 7 7 7 7 7 8 9 9 9 10 11 11 10 11 10 11 11 10 10 10 10 10 10 10 9 9 9 9 7 6 5 4 4 3 2 2 2 3 4
5 5 6 7 8 7 6 6 7 7 8 8 9 9 10 11 11 11 10 10 10 10 10 9 10 10 10 10 10 10 9 9 8 7 6 5 5 4 4 3 2 3 3 4
6 6 7 7 8 8 7 7 7 8 7 8 8 9 10 10 11 11 11 10 11 11 10 10 10 10 10 10 10 9 9 8 8 7 6 5 5 4 4 3 3 3 4 4
7 6 8 8 8 8 7 7 7 8 8 8 9 9 10 10 11 11 10 10 10 11 10 10 11 11 11 11 10 10 9 9 8 8 7 6 5 4 4 3 4 4 4 4
6 6 7 8 8 8 8 7 6 7 8 8 8 9 10 9 10 10 10 10 11 11 11 11 11 11 11 11 11 10 10 10 9 8 8 7 6 5 4 4 4 4 5 4
7 7 8 8 9 8 8 8 8 8 8 8 9 9 9 9 9 10 10 11 11 11 11 11 11 11 12 12 11 11 11 10 10 10 9 8 7 6 5 5 5 5 5 5
8 8 8 9 9 9 9 9 9 8 8 8 9 9 9 9 9 10 10 11 11 11 12 11 11 11 12 12 12 12 11 11 11 10 10 9 8 7 7 6 6 6 6 5
10 9 9 9 10 10 11 10 10 9 8 8 8 9 9 10 10 10 10 10 10 11 11 12 12 12 12 13 13 13 12 11 11 11 10 10 9 8 8 7 6 6 7 6
11 10 10 10 11 11 11 11 10 10 10 9 8 9 9 10 11 11 10 10 10 10 11 11 12 12 12 13 13 13 13 12 12 12 12 11 10 9 8 8 8 7 7 6
11 11 11 11 11 12 13 12 10 10 10 10 9 10 9 10 10 11 10 10 11 11 11 11 12 12 13 13 13 13 12 13 13 12 12 11 11 10 9 9 8 8 7 7
12 12 11 11 12 12 12 12 11 10 10 10 10 10 10 10 10 10 11 11 11 12 12 12 12 12 13 13 13 13 13 13 13 13 13 12 11 10 10 9 9 8 8 8
13 13 13 13 12 12 12 11 11 11 10 10 10 10 10 10 11 11 11 11 11 12 12 12 13 13 13 13 13 13 13 14 14 14 13 12 11 11 10 10 9 9 9 9
14 14 14 14 13 13 13 13 12 12 11 11 10 10 11 11 11 12 12 11 12 12 12 12 13 13 13 14 14 14 14 14 15 15 14 13 12 12 11 10 10 9 9 9
15 15 15 15 14 13 13 14 13 12 12 11 11 11 10 10 10 11 12 12 13 13 13 12 12 12 13 13 13 14 14 15 15 16 15 15 14 13 12 11 11 11 11 11
16 15 15 15 15 15 14 14 14 13 12 12 12 11 12 12 11 11 12 13 13 13 13 12 12 12 13 13 14 14 14 15 15 15 15 15 15 15 14 13 13 12 12 12
18 17 17 16 16 17 15 15 15 14 14 13 13 13 13 12 12 12 13 13 14 14 14 13 13 14 14 14 15 15 15 16 16 16 17 17 16 16 16 15 14 14 14 14
19 18 18 18 18 17 16 15 15 16 15 14 14 13 14 13 14 13 13 14 14 14 14 15 15 15 15 15 15 15 16 16 16 16 17 17 17 17 16 16 16 16 16 16
21 20 20 20 19 18 17 15 16 16 15 15 15 14 14 15 15 14 14 15 15 15 14 15 15 16 16 16 16 16 17 17 17 18 18 18 18 18 18 18 17 17 17 17
23 22 21 20 20 19 18 17 17 16 15 15 16 15 16 15 15 16 16 16 16 16 16 16 16 16 17 17 17 18 18 19 19 19 19 19 19 19 19 19 19 19 19 19
23 23 22 22 21 21 19 19 18 17 17 17 16 17 16 16 16 17 17 17 18 18 17 17 17 17 18 19 19 19 20 20 21 20 20 20 21 21 21 21 21 21 21 20
25 24 23 23 23 22 21 21 20 19 18 18 18 18 18 17 17 17 18 18 18 18 18 18 18 18 19 19 19 20 21 21 21 21 22 22 22 22 22 22 22 23 22 22
27 25 25 24 23 23 22 21 21 20 20 20 20 20 19 19 19 19 18 19 19 19 19 19 19 19 20 20 20 20 21 21 22 22 22 22 23 23 24 24 24 24 23 24
27 26 26 26 25 24 23 23 22 22 21 21 21 21 20 20 19 19 19 19 20 20 20 20 20 20 21 21 22 22 22 22 22 23 23 23 24 24 25 25 25 25 25 25
28 27 27 26 26 26 25 24 24 24 22 22 22 22 21 21 20 20 20 20 21 21 21 21 22 22 22 22 23 23 23 23 24 24 24 25 25 26 26 27 27 27 27 28
Wind_Direction
184 192 196 193 188 184 183 187 189 188 188 191 191 193 192 193 200 202 202 201 199 198 198 201 203 205 205 204 202 203 204 203 204 204 205 210 217 224 230 259 296 310 311 320
208 210 201 193 190 188 185 186 187 188 192 194 194 195 197 197 201 203 204 206 205 205 205 206 206 205 204 203 202 201 203 204 205 206 209 212 216 219 223 268 306 315 311 317
211 209 202 195 190 190 192 190 187 187 192 196 199 203 206 208 208 208 209 210 209 209 211 213 209 206 205 206 205 204 206 204 204 206 212 216 221 223 235 265 300 307 307 317
212 207 203 194 190 189 196 195 191 188 192 199 203 208 211 214 215 216 214 214 214 212 214 218 216 213 211 209 208 208 208 206 205 209 213 219 225 227 237 254 286 295 301 314
211 208 206 202 197 194 199 202 201 199 200 203 207 211 216 216 216 217 217 217 216 214 214 219 221 221 217 212 210 212 215 208 208 214 218 224 230 236 238 253 276 286 295 311
210 212 210 209 205 201 205 207 212 212 212 212 214 216 221 220 218 217 216 217 217 217 219 220 222 223 221 218 215 216 218 215 215 219 222 228 234 235 239 254 268 281 292 308
212 215 215 211 209 209 211 212 216 218 222 222 221 222 222 220 218 219 220 220 218 219 222 221 221 222 220 218 217 218 220 219 221 222 226 232 234 238 244 256 268 279 288 300
213 218 217 214 212 213 214 214 217 221 226 225 224 224 225 223 222 223 223 222 220 220 221 220 220 220 217 216 217 220 222 222 223 225 230 235 238 244 251 260 266 275 282 288
214 217 216 216 217 217 217 219 221 222 228 231 231 229 228 226 224 223 221 222 222 221 220 220 220 221 218 217 219 223 225 224 226 230 232 235 239 246 254 261 266 272 278 282
219 221 220 221 221 220 221 220 222 223 227 232 235 236 235 229 225 224 223 222 222 221 220 222 223 221 219 220 221 224 227 226 229 232 235 237 241 247 256 261 264 273 277 278
222 227 228 227 226 225 223 223 225 229 234 232 235 239 235 229 225 225 225 225 224 221 220 222 225 226 224 226 226 227 227 229 231 234 237 240 241 248 255 260 266 273 275 275
227 230 232 230 227 225 224 224 228 234 237 234 234 238 236 232 228 228 227 228 228 226 224 224 225 227 229 231 230 232 234 233 232 235 238 240 244 249 255 259 263 267 269 273
230 231 232 232 232 229 228 229 231 234 234 230 228 234 240 236 232 228 230 232 229 228 227 227 228 230 230 231 231 234 238 236 234 236 239 243 246 249 253 258 261 265 266 272
232 232 232 233 235 232 231 232 233 233 234 232 231 231 237 239 235 231 231 234 231 230 230 229 230 231 233 233 234 235 238 238 236 237 240 244 248 251 254 258 261 264 268 273
234 231 231 232 232 232 232 232 232 234 236 234 229 232 234 237 235 234 233 233 233 232 231 231 232 235 236 237 237 238 240 240 238 239 241 245 250 252 254 257 259 262 269 274
233 231 232 234 233 234 234 233 234 236 236 237 236 234 234 235 235 233 231 231 233 233 231 232 234 237 238 237 238 240 243 244 241 241 242 245 249 253 256 259 262 264 269 274
233 234 234 237 238 238 237 236 239 240 240 242 238 234 237 238 238 235 230 228 230 233 233 235 237 241 241 239 240 243 246 246 246 246 246 248 251 254 258 262 265 268 270 273
232 233 235 237 239 242 241 238 239 240 242 242 239 235 238 238 237 238 235 233 233 234 235 237 239 242 242 242 242 244 245 246 248 250 249 250 251 254 258 261 266 269 272 273
230 232 235 237 240 242 240 239 240 242 242 242 240 237 236 239 240 241 240 238 238 238 238 241 243 243 243 243 244 245 247 248 249 250 250 251 252 253 257 261 264 268 271 273
231 233 235 237 240 243 240 240 242 244 242 238 237 238 238 240 240 241 242 240 241 242 243 244 246 245 245 246 246 246 248 249 250 251 252 253 255 256 258 262 265 269 271 273
234 235 236 238 241 242 241 241 242 243 242 243 243 241 240 241 242 243 244 244 243 244 246 248 250 249 249 248 248 249 250 250 250 251 253 255 257 258 260 263 267 270 271 273
236 237 238 240 241 242 241 240 241 244 247 246 245 244 243 244 246 247 247 246 244 245 247 249 251 253 253 251 251 252 252 251 251 252 254 257 259 261 263 265 268 270 271 273
236 239 240 242 243 244 243 243 243 244 245 246 246 246 247 249 249 249 249 248 247 247 248 249 251 253 254 255 255 254 253 253 253 255 256 258 261 262 264 267 270 272 272 274
237 239 240 241 242 242 243 243 243 243 244 245 246 247 249 251 251 251 251 252 251 250 248 248 250 253 254 256 256 255 255 255 255 256 258 260 263 264 265 268 271 272 273 275
237 238 240 240 240 241 242 242 242 241 242 245 246 249 251 253 252 251 253 252 252 251 251 250 251 253 255 256 255 255 255 255 256 257 258 261 263 266 266 269 271 274 275 276
236 237 239 241 241 242 242 241 240 241 242 244 247 249 251 252 252 253 253 253 254 254 254 254 253 254 256 257 257 256 256 256 257 258 260 262 264 266 268 269 271 274 277 279